Regional Weather Roundup
Issued by NWS Goodland, KS

Home | Current Version | Previous Version | Graphics & Text | Print | Product List | Glossary On
Versions: 1 2 3 4 5 6 7 8 9 10 11 12 13 14 15 16 17 18 19 20 21 22 23 24 25 26 27 28 29 30 31 32 33 34 35 36 37 38 39 40 41 42 43 44 45 46 47 48 49 50
000
ASUS43 KGLD 100659
RWRGLD

GOODLAND FORECAST AREA HOURLY WEATHER ROUNDUP
NATIONAL WEATHER SERVICE GOODLAND KS
100 AM MDT THU JUL 10 2014

...OFFICIAL OBSERVATIONS...

CITY           SKY/WX    TMP DP  RH WIND       PRES   REMARKS
GOODLAND KS    PTCLDY    75  49  39 SW16G32   29.92F
HILL CITY KS   LGT RAIN  68  64  87 SE13      29.99R
IMPERIAL NEB   CLEAR     68  60  75 SE16      29.97R
MCCOOK NEB     CLOUDY    65  63  93 E17       29.99R
AKRON CO       CLEAR     67  55  65 S18G28    30.00F
BURLINGTON CO  PTCLDY    68  51  54 S16       29.98F
LIMON CO       PTCLDY    62  53  72 SE10      30.10F
$$

...UNOFFICIAL OBSERVATIONS...

CITY           SKY/WX    TMP DP  RH WIND       PRES   REMARKS
COLBY KS       CLEAR     70  64  83 E10       29.96R
GOVE KS          N/A     72  32  23 CALM        N/A
NORTON KS      PTCLDY    68  59  73 SE18G30   29.96S
WAKEENEY KS      N/A     69  62  79 MISG        N/A
$$



USA.gov is the U.S. government's official web portal to all federal, state and local government web resources and services.